Lake Harding Weather Center

Moon Phase Calendar



Lake Harding Water Level
Online Cameras

 


      

Current Conditions in Valley
5/23/2024 8:06:19 PM

82°F
Feels Like 85
Clouds
Humidity
66%
Pressure
29.91"
Wind
4 mph (SW)
Dew Point
69°F
UV Index
0/10 (Low)
Visibility
6 mi

Hourly Forecast

Date & Time Thu, May 23
8:00 PM
Thu, May 23
9:00 PM
Thu, May 23
10:00 PM
Thu, May 23
11:00 PM
Fri, May 24
12:00 AM
Fri, May 24
1:00 AM
Fri, May 24
2:00 AM
Fri, May 24
3:00 AM
Fri, May 24
4:00 AM
Fri, May 24
5:00 AM
Fri, May 24
6:00 AM
Fri, May 24
7:00 AM
Fri, May 24
8:00 AM
Fri, May 24
9:00 AM
Fri, May 24
10:00 AM
Fri, May 24
11:00 AM
Fri, May 24
12:00 PM
Fri, May 24
1:00 PM
Fri, May 24
2:00 PM
Fri, May 24
3:00 PM
Fri, May 24
4:00 PM
Fri, May 24
5:00 PM
Fri, May 24
6:00 PM
Fri, May 24
7:00 PM
Fri, May 24
8:00 PM
Fri, May 24
9:00 PM
Fri, May 24
10:00 PM
Fri, May 24
11:00 PM
Sat, May 25
12:00 AM
Sat, May 25
1:00 AM
Sat, May 25
2:00 AM
Sat, May 25
3:00 AM
Sat, May 25
4:00 AM
Sat, May 25
5:00 AM
Sat, May 25
6:00 AM
Sat, May 25
7:00 AM
Sat, May 25
8:00 AM
Sat, May 25
9:00 AM
Sat, May 25
10:00 AM
Sat, May 25
11:00 AM
Sat, May 25
12:00 PM
Sat, May 25
1:00 PM
Sat, May 25
2:00 PM
Sat, May 25
3:00 PM
Sat, May 25
4:00 PM
Sat, May 25
5:00 PM
Sat, May 25
6:00 PM
Sat, May 25
7:00 PM
Condition
Clouds

Clouds

Clouds

Clouds

Clouds

Clouds

Clouds

Clouds

Clouds

Clouds

Clouds

Clouds

Clouds

Clouds

Clouds

Clouds

Clouds

Clouds

Clouds

Clouds

Clouds

Clouds

Clouds

Clouds

Clouds

Rain

Clouds

Clouds

Clouds

Clouds

Clouds

Clouds

Clouds

Clouds

Clouds

Rain

Rain

Rain

Clouds

Clouds

Clouds

Rain

Rain

Clouds

Clouds

Clouds

Clouds

Clouds
Temperature 82°F81°F79°F77°F75°F72°F71°F70°F69°F69°F68°F68°F70°F74°F79°F82°F85°F86°F87°F88°F88°F88°F87°F85°F78°F74°F73°F71°F69°F69°F68°F68°F68°F68°F67°F67°F70°F74°F78°F84°F87°F86°F84°F85°F85°F85°F85°F84°F
Feels Like 85°F83°F79°F78°F75°F72°F71°F70°F70°F70°F68°F68°F71°F74°F79°F83°F85°F86°F87°F87°F87°F87°F86°F85°F79°F74°F73°F71°F70°F69°F69°F69°F69°F68°F68°F68°F71°F76°F80°F88°F91°F90°F89°F88°F89°F89°F89°F88°F
Cloudiness 73%73%79%84%89%91%92%78%89%92%92%88%90%100%100%100%97%96%96%100%77%53%40%32%28%37%65%45%34%32%43%100%99%95%74%59%51%31%65%68%73%79%82%100%100%100%100%91%
Visibility 6 mi6 mi6 mi6 mi6 mi6 mi6 mi6 mi6 mi6 mi6 mi6 mi6 mi6 mi6 mi6 mi6 mi6 mi6 mi6 mi6 mi6 mi6 mi6 mi6 mi6 mi6 mi6 mi6 mi6 mi6 mi6 mi6 mi6 mi6 mi6 mi6 mi6 mi6 mi6 mi6 mi6 mi6 mi6 mi6 mi6 mi6 mi6 mi
Precipitation 0%0%0%0%0%0%0%0%0%0%0%0%0%0%0%0%0%0%0%0%0%0%0%0%0%68%53%22%7%2%0%0%2%1%1%73%73%37%17%18%29%48%98%0%18%9%2%1%
Humidity 66%66%66%68%70%75%79%84%87%90%93%93%86%78%61%51%45%41%39%38%36%36%37%47%64%73%76%80%83%84%85%88%91%93%95%97%93%88%80%64%54%58%63%58%57%58%60%62%
Dew Point 69°F68°F67°F66°F64°F63°F64°F65°F65°F65°F65°F65°F66°F66°F64°F62°F61°F60°F59°F58°F58°F57°F58°F62°F65°F64°F65°F64°F64°F64°F64°F64°F65°F65°F65°F66°F68°F70°F71°F70°F69°F69°F70°F68°F68°F68°F69°F69°F
Pressure 29.91"29.91"29.91"29.91"29.94"29.91"29.91"29.91"29.91"29.91"29.91"29.91"29.91"29.91"29.91"29.94"29.91"29.91"29.91"29.88"29.88"29.85"29.85"29.85"29.85"29.88"29.88"29.88"29.88"29.88"29.88"29.88"29.88"29.88"29.91"29.91"29.94"29.94"29.94"29.94"29.91"29.91"29.91"29.88"29.88"29.88"29.88"29.88"
Wind Speed 4 mph3.9 mph3.1 mph3.5 mph4.5 mph4.6 mph4.6 mph4.1 mph4.5 mph3.8 mph2.4 mph3.2 mph2.3 mph6.1 mph6.8 mph6.4 mph6.7 mph7.8 mph7.2 mph7.2 mph7.9 mph8 mph8.1 mph5.6 mph3 mph3 mph2 mph0.8 mph1.5 mph1.9 mph1.7 mph2.7 mph3.2 mph3.6 mph3 mph1.8 mph0.8 mph1.7 mph3.7 mph5.3 mph5.6 mph7.8 mph7.2 mph5.8 mph6.6 mph5.2 mph5 mph5.1 mph
Wind
Direction
216°
SW
234°
SW
223°
SW
207°
SSW
236°
SW
216°
SW
212°
SSW
196°
SSW
254°
WSW
249°
WSW
266°
W
299°
WNW
177°
S
187°
S
193°
SSW
221°
SW
198°
SSW
201°
SSW
203°
SSW
203°
SSW
206°
SSW
208°
SSW
227°
SW
248°
WSW
313°
NW
348°
NNW

N
80°
E
257°
WSW
274°
W
256°
WSW
254°
WSW
324°
NW
305°
NW
324°
NW
340°
NNW
348°
NNW
310°
NW
282°
WNW
268°
W
286°
WNW
293°
WNW
282°
WNW
267°
W
274°
W
264°
W
248°
WSW
244°
WSW

Daily Forecast

Date High Low Precip. Humidity
Today
May 23

Clouds
88 °F
68 °F
0%
46%
Friday
May 24

Rain
88 °F
68 °F
68%
41%
Saturday
May 25

Rain
87 °F
67 °F
98%
58%
Sunday
May 26

Clouds
91 °F
68 °F
62%
45%
Monday
May 27

Rain
92 °F
68 °F
100%
42%
Tuesday
May 28

Rain
89 °F
66 °F
100%
49%
Wednesday
May 29

Clear
88 °F
66 °F
80%
28%
Thursday
May 30

Clouds
87 °F
62 °F
0%
36%
Friday
May 31

Rain
89 °F
64 °F
100%
40%
Saturday
Jun 1

Rain
86 °F
66 °F
100%
45%
Sunday
Jun 2

Clear
86 °F
58 °F
0%
31%
Monday
Jun 3

Clouds
88 °F
64 °F
0%
30%
Tuesday
Jun 4

Rain
85 °F
68 °F
100%
53%
Wednesday
Jun 5

Rain
90 °F
64 °F
56%
40%
Thursday
Jun 6

Rain
76 °F
67 °F
100%
96%
Friday
Jun 7

Rain
85 °F
67 °F
100%
60%

Temperature 8-14 Day Outlook



Precipitation 8-14 Day Outlook






About Us
Contact Us
Site Map
Search Site
Advertise With Us
   
www.LakeHardingNews.com
THE LAKE HARDING WEBSITE

Copyright 2024, Lakes Online
Privacy    |    Legal